sat.trackr.live / text

‹ back to catalog

TEVEL2-3

NORAD 63218 · 2025-052J

PAYLOAD ACTIVE UNKNOWN

§ Identity

Operator
Country
ISRA
Launch date
2025-03-15
Launch site
AFWTR
Launch vehicle
Mass (kg)
RCS (m²)

Purposes: comms

External: N2YO · Heavens-Above · Gunter

§ Orbital elements

Epoch: 2026-05-25T03:20:45.976128Z

Period
93.93 min
Inclination
97.3907°
Eccentricity
0.0002714
Mean motion
15.33030054 rev/d
Perigee alt
464.9 km
Apogee alt
468.6 km
Semi-major
6,844.9 km
B*
5.2924e-4
RAAN
41.1138°
Arg perigee
158.4259°
Mean anomaly
201.7098°
Rev number
6,656

§ Raw data

TEVEL2-31 63218U 25052J   26145.13942102  .00016828  00000+0  52924-3 0  99932 63218  97.3907  41.1138 0002714 158.4259 201.7098 15.33030054 66567

JSON: /api/v1/satellites/63218 · /tle

For live sub-satellite position, see the globe view (requires WebGL).

§ Visibility from observer

Set your observer location to see the next 7 days of passes ≥ 10°. The values pass through the URL so the page stays shareable.

No JS? Fill the form by hand. The geolocation button needs JavaScript.

§ Radio — SatNOGS DB

ModeDescriptionDownlinkUplink
BPSK Mode U - BPSK9k6 G3RUH - Beacon 436.400 MHz
FM Mode V/U - FM Transponder 436.400 MHz 145.970 MHz

2 transmitters · refreshed weekly from db.satnogs.org